When you browse on this site, cookies collect data to enhance your experience and personalize the content and advertising you see.
Visit our Privacy Policy to learn more. By continuing to use the site, you agree to this use of cookies and data.
  • En España
  • Lista de países
  • Para 7 días
  • Temperatura del agua
  • Mapa Satelital
  • El tiempo en el mapa
  • Informadores
  • user-avatar
    Iniciar sesión

    Tiempo cada hora Chervonyi Zhovten'

    Hoy, 23 Mayo, Jueves

    Tiempo Temperatura Precipitaciones Viento Presión Humedad
    00:00 +14°C° 0 mm 3 mps 753 mmHg 84%
    01:00 +14°C° 0 mm 3 mps 753 mmHg 85%
    02:00 +13°C° 0 mm 3 mps 753 mmHg 87%
    03:00 +13°C° 0 mm 3 mps 753 mmHg 87%
    04:00 +13°C° 0 mm 3 mps 753 mmHg 88%
    05:00 +13°C° 0 mm 3 mps 753 mmHg 89%
    06:00 +16°C° 0 mm 3 mps 753 mmHg 81%
    07:00 +18°C° 0 mm 3 mps 753 mmHg 74%
    08:00 +20°C° 0 mm 3 mps 753 mmHg 66%
    09:00 +21°C° 0.2 mm 4 mps 753 mmHg 62%
    10:00 +23°C° 0.2 mm 5 mps 753 mmHg 57%
    11:00 +25°C° 0.2 mm 5 mps 753 mmHg 52%
    12:00 +24°C° 0.2 mm 6 mps 753 mmHg 51%
    13:00 +24°C° 0.2 mm 6 mps 753 mmHg 50%
    14:00 +26°C° 0.2 mm 6 mps 753 mmHg 49%
    15:00 +25°C° 0.3 mm 5 mps 752 mmHg 52%
    16:00 +25°C° 0.3 mm 5 mps 752 mmHg 55%
    17:00 +23°C° 0.3 mm 4 mps 752 mmHg 58%
    18:00 +22°C° 0.1 mm 3 mps 752 mmHg 62%
    19:00 +20°C° 0.1 mm 2 mps 753 mmHg 67%
    20:00 +19°C° 0.1 mm 2 mps 753 mmHg 71%
    21:00 +18°C° 0.1 mm 2 mps 753 mmHg 74%
    22:00 +18°C° 0.1 mm 2 mps 753 mmHg 77%
    23:00 +17°C° 0.1 mm 2 mps 753 mmHg 80%

    Mañana, 24 Mayo, Viernes

    Tiempo Temperatura Precipitaciones Viento Presión Humedad
    00:00 +17°C° 0 mm 2 mps 753 mmHg 82%
    01:00 +16°C° 0 mm 2 mps 753 mmHg 84%
    02:00 +16°C° 0 mm 2 mps 754 mmHg 86%
    03:00 +16°C° 0.1 mm 2 mps 754 mmHg 86%
    04:00 +16°C° 0.1 mm 2 mps 754 mmHg 85%
    05:00 +16°C° 0.1 mm 1 mps 754 mmHg 85%
    06:00 +18°C° 0 mm 2 mps 754 mmHg 78%
    07:00 +20°C° 0 mm 2 mps 754 mmHg 71%
    08:00 +23°C° 0 mm 2 mps 754 mmHg 64%
    09:00 +24°C° 0.5 mm 2 mps 754 mmHg 60%
    10:00 +25°C° 0.5 mm 2 mps 754 mmHg 55%
    11:00 +26°C° 0.5 mm 2 mps 754 mmHg 50%
    12:00 +26°C° 0.4 mm 2 mps 754 mmHg 49%
    13:00 +27°C° 0.4 mm 2 mps 753 mmHg 48%
    14:00 +27°C° 0.4 mm 2 mps 753 mmHg 47%
    15:00 +26°C° 0 mm 1 mps 753 mmHg 49%
    16:00 +26°C° 0 mm 1 mps 753 mmHg 51%
    17:00 +26°C° 0 mm 1 mps 753 mmHg 54%
    18:00 +24°C° 0 mm 1 mps 753 mmHg 58%
    19:00 +21°C° 0 mm 2 mps 753 mmHg 63%
    20:00 +20°C° 0 mm 3 mps 753 mmHg 67%
    21:00 +19°C° 0 mm 3 mps 753 mmHg 69%
    22:00 +18°C° 0 mm 2 mps 753 mmHg 70%
    23:00 +18°C° 0 mm 2 mps 753 mmHg 71%

    Pasado mañana, 25 Mayo, Sábado

    Tiempo Temperatura Precipitaciones Viento Presión Humedad
    00:00 +17°C° 0.1 mm 2 mps 753 mmHg 75%
    01:00 +17°C° 0.1 mm 2 mps 753 mmHg 78%
    02:00 +18°C° 0.1 mm 1 mps 753 mmHg 82%
    03:00 +18°C° 0 mm 1 mps 753 mmHg 84%
    04:00 +18°C° 0 mm 1 mps 752 mmHg 87%
    05:00 +18°C° 0 mm 1 mps 752 mmHg 89%
    06:00 +19°C° 0 mm 2 mps 752 mmHg 81%
    07:00 +21°C° 0 mm 2 mps 752 mmHg 74%
    08:00 +23°C° 0 mm 2 mps 752 mmHg 66%
    09:00 +24°C° 0.1 mm 2 mps 752 mmHg 61%
    10:00 +25°C° 0.1 mm 2 mps 752 mmHg 56%
    11:00 +26°C° 0.1 mm 2 mps 752 mmHg 50%
    12:00 +26°C° 0.1 mm 2 mps 752 mmHg 50%
    13:00 +26°C° 0.1 mm 3 mps 752 mmHg 50%
    14:00 +26°C° 0.1 mm 3 mps 751 mmHg 50%
    15:00 +26°C° 0.4 mm 3 mps 751 mmHg 54%
    16:00 +25°C° 0.4 mm 2 mps 751 mmHg 59%
    17:00 +24°C° 0.4 mm 2 mps 751 mmHg 64%
    18:00 +23°C° 1 mm 2 mps 751 mmHg 70%
    19:00 +20°C° 1 mm 3 mps 751 mmHg 76%
    20:00 +19°C° 1 mm 3 mps 752 mmHg 83%
    21:00 +18°C° 0 mm 3 mps 752 mmHg 84%
    22:00 +18°C° 0 mm 3 mps 752 mmHg 86%
    23:00 +18°C° 0 mm 3 mps 751 mmHg 87%

    26 Mayo, Domingo

    Tiempo Temperatura Precipitaciones Viento Presión Humedad
    00:00 +17°C° 0.4 mm 4 mps 751 mmHg 89%
    01:00 +17°C° 0.4 mm 4 mps 751 mmHg 90%
    02:00 +17°C° 0.4 mm 4 mps 751 mmHg 92%
    03:00 +17°C° 0.1 mm 4 mps 751 mmHg 91%
    04:00 +15°C° 0.1 mm 4 mps 751 mmHg 91%
    05:00 +15°C° 0.1 mm 4 mps 751 mmHg 91%
    06:00 +18°C° 0 mm 4 mps 752 mmHg 86%
    07:00 +19°C° 0 mm 4 mps 752 mmHg 82%
    08:00 +21°C° 0 mm 5 mps 752 mmHg 78%
    09:00 +22°C° 0 mm 5 mps 752 mmHg 71%
    10:00 +25°C° 0 mm 5 mps 752 mmHg 65%
    11:00 +26°C° 0 mm 6 mps 752 mmHg 59%
    12:00 +26°C° 0.9 mm 6 mps 752 mmHg 58%
    13:00 +26°C° 0.9 mm 5 mps 752 mmHg 57%
    14:00 +26°C° 0.9 mm 5 mps 752 mmHg 57%
    15:00 +26°C° 0.3 mm 5 mps 753 mmHg 57%
    16:00 +26°C° 0.3 mm 4 mps 753 mmHg 58%
    17:00 +26°C° 0.3 mm 4 mps 753 mmHg 59%
    18:00 +24°C° 0 mm 3 mps 753 mmHg 62%
    19:00 +22°C° 0 mm 3 mps 754 mmHg 65%
    20:00 +20°C° 0 mm 2 mps 754 mmHg 68%
    21:00 +20°C° 0 mm 2 mps 754 mmHg 70%
    22:00 +19°C° 0 mm 2 mps 755 mmHg 71%
    23:00 +19°C° 0 mm 2 mps 755 mmHg 73%

    27 Mayo, Lunes

    Tiempo Temperatura Precipitaciones Viento Presión Humedad
    00:00 +18°C° 0 mm 2 mps 755 mmHg 75%
    01:00 +18°C° 0 mm 3 mps 755 mmHg 77%
    02:00 +17°C° 0 mm 3 mps 755 mmHg 80%
    03:00 +17°C° 0 mm 3 mps 755 mmHg 81%
    04:00 +17°C° 0 mm 3 mps 755 mmHg 82%
    05:00 +17°C° 0 mm 3 mps 756 mmHg 83%
    06:00 +19°C° 0 mm 4 mps 756 mmHg 78%
    07:00 +21°C° 0 mm 5 mps 756 mmHg 73%
    08:00 +22°C° 0 mm 6 mps 756 mmHg 69%
    09:00 +23°C° 0.4 mm 6 mps 756 mmHg 66%
    10:00 +26°C° 0.4 mm 7 mps 757 mmHg 62%
    11:00 +27°C° 0.4 mm 7 mps 757 mmHg 59%
    12:00 +27°C° 0.7 mm 7 mps 757 mmHg 59%
    13:00 +27°C° 0.7 mm 6 mps 757 mmHg 60%
    14:00 +27°C° 0.7 mm 6 mps 757 mmHg 60%
    15:00 +27°C° 0.1 mm 5 mps 757 mmHg 60%
    16:00 +26°C° 0.1 mm 4 mps 757 mmHg 60%
    17:00 +26°C° 0.1 mm 3 mps 758 mmHg 60%
    18:00 +24°C° 0 mm 3 mps 758 mmHg 62%
    19:00 +21°C° 0 mm 3 mps 758 mmHg 65%
    20:00 +20°C° 0 mm 3 mps 759 mmHg 68%
    21:00 +19°C° 0 mm 3 mps 759 mmHg 68%
    22:00 +18°C° 0 mm 3 mps 759 mmHg 68%
    23:00 +17°C° 0 mm 3 mps 759 mmHg 68%

    28 Mayo, Martes

    Tiempo Temperatura Precipitaciones Viento Presión Humedad
    00:00 +17°C° 0 mm 3 mps 759 mmHg 69%
    01:00 +16°C° 0 mm 3 mps 759 mmHg 70%
    02:00 +16°C° 0 mm 3 mps 759 mmHg 72%
    03:00 +16°C° 0 mm 3 mps 759 mmHg 74%
    04:00 +16°C° 0 mm 3 mps 759 mmHg 77%
    05:00 +17°C° 0 mm 3 mps 759 mmHg 80%
    06:00 +19°C° 0 mm 3 mps 759 mmHg 77%
    07:00 +21°C° 0 mm 3 mps 759 mmHg 73%
    08:00 +25°C° 0 mm 4 mps 759 mmHg 69%
    09:00 +26°C° 0 mm 4 mps 759 mmHg 63%
    10:00 +27°C° 0 mm 4 mps 759 mmHg 57%
    11:00 +29°C° 0 mm 4 mps 759 mmHg 51%
    12:00 +29°C° 0 mm 5 mps 759 mmHg 50%
    13:00 +29°C° 0 mm 5 mps 758 mmHg 48%
    14:00 +29°C° 0 mm 5 mps 758 mmHg 46%
    15:00 +29°C° 0 mm 5 mps 758 mmHg 48%
    16:00 +28°C° 0 mm 5 mps 757 mmHg 50%
    17:00 +27°C° 0 mm 5 mps 757 mmHg 52%
    18:00 +26°C° 0 mm 5 mps 757 mmHg 60%
    19:00 +23°C° 0 mm 4 mps 757 mmHg 67%
    20:00 +21°C° 0 mm 4 mps 757 mmHg 74%
    21:00 +21°C° 0 mm 4 mps 757 mmHg 74%
    22:00 +21°C° 0 mm 4 mps 757 mmHg 73%
    23:00 +20°C° 0 mm 4 mps 757 mmHg 72%
    Mostrar más